EW5195 Weather Reports


Display with metric or nautical units.
time (UTC)temp
F
wind
direction
speed
MPH
gust
MPH
rain 1hr
in
rain 24hr
in
rain mn
in
humidity
%
barometer
mb
20260831222552 85 0 0.0 0.0 0.00 0.00 0.00 75 1018.9
20260831222050 85 0 0.0 0.0 0.00 0.00 0.00 76 1018.8
20260831221605 86 0 0.0 0.0 0.00 0.00 0.00 75 1018.9
20260831221050 86 0 0.0 0.0 0.00 0.00 0.00 74 1018.9
20260831220554 86 0 0.0 0.0 0.00 0.00 0.00 72 1018.8
20260831220106 86 0 0.0 0.0 0.00 0.00 0.00 72 1018.8
20260831215550 87 0 0.0 0.0 0.00 0.00 0.00 71 1018.7
20260831215050 87 0 0.0 0.0 0.00 0.00 0.00 71 1018.6
20260831214608 87 0 0.0 0.0 0.00 0.00 0.00 70 1018.7
20260831214051 88 0 0.0 0.0 0.00 0.00 0.00 69 1018.6
20260831213556 88 0 0.0 0.0 0.00 0.00 0.00 67 1018.6
20260831213104 89 0 0.0 0.0 0.00 0.00 0.00 66 1018.6
20260831212553 89 0 0.0 0.0 0.00 0.00 0.00 65 1018.7
20260831212052 90 0 0.0 0.0 0.00 0.00 0.00 61 1018.7
20260831211608 90 0 0.0 0.0 0.00 0.00 0.00 66 1018.5
20260831211052 91 0 0.0 0.0 0.00 0.00 0.00 65 1018.6
20260831210550 91 0 0.0 0.0 0.00 0.00 0.00 63 1018.6
20260831210103 91 0 0.0 0.0 0.00 0.00 0.00 60 1018.5
20260831205550 91 0 0.0 0.0 0.00 0.00 0.00 62 1018.6
20260831205053 90 0 0.0 0.0 0.00 0.00 0.00 67 1018.6
20260831204610 90 0 0.0 0.0 0.00 0.00 0.00 66 1018.7
20260831204050 91 0 0.0 0.0 0.00 0.00 0.00 68 1018.5
20260831203549 91 0 0.0 0.0 0.00 0.00 0.00 62 1018.7
20260831203121 91 0 0.0 0.0 0.00 0.00 0.00 58 1018.8
20260831202550 92 0 0.0 0.0 0.00 0.00 0.00 60 1018.7
20260831202050 92 0 0.0 0.0 0.00 0.00 0.00 57 1018.8
20260831201606 93 0 0.0 0.0 0.00 0.00 0.00 57 1018.6
20260831201051 92 0 0.0 0.0 0.00 0.00 0.00 59 1018.5
20260831200551 92 0 0.0 0.0 0.00 0.00 0.00 63 1018.6
20260831200104 92 0 0.0 0.0 0.00 0.00 0.00 66 1018.7
20260831195553 92 0 0.0 0.0 0.00 0.00 0.00 59 1018.5
20260831195050 92 0 0.0 0.0 0.00 0.00 0.00 61 1018.7
20260831194606 92 0 0.0 0.0 0.00 0.00 0.00 62 1018.8
20260831194050 91 0 0.0 0.0 0.00 0.00 0.00 57 1018.7
20260831193554 92 0 0.0 0.0 0.00 0.00 0.00 59 1018.8
20260831193106 92 0 0.0 0.0 0.00 0.00 0.00 61 1018.9
20260831192550 92 0 0.0 0.0 0.00 0.00 0.00 60 1018.9
20260831192050 91 0 0.0 0.0 0.00 0.00 0.00 60 1019.0
20260831191600 92 0 0.0 0.0 0.00 0.00 0.00 63 1019.1
20260831191051 91 0 0.0 0.0 0.00 0.00 0.00 62 1019.1
20260831190551 91 0 0.0 0.0 0.00 0.00 0.00 61 1019.1
20260831185551 90 0 0.0 0.0 0.00 0.00 0.00 60 1019.4
20260831185050 88 0 0.0 0.0 0.00 0.00 0.00 70 1019.4
20260831184604 89 0 0.0 0.0 0.00 0.00 0.00 68 1019.6
20260831184051 90 0 0.0 0.0 0.00 0.00 0.00 66 1019.4
20260831183550 90 0 0.0 0.0 0.00 0.00 0.00 63 1019.5
20260831183104 91 0 0.0 0.0 0.00 0.00 0.00 61 1019.6
20260831182551 91 0 0.0 0.0 0.00 0.00 0.00 61 1019.6
20260831182051 91 0 0.0 0.0 0.00 0.00 0.00 61 1019.6
20260831181605 90 0 0.0 0.0 0.00 0.00 0.00 61 1019.7
20260831181051 90 0 0.0 0.0 0.00 0.00 0.00 65 1019.6
20260831180552 90 0 0.0 0.0 0.00 0.00 0.00 62 1019.7
20260831180106 91 0 0.0 0.0 0.00 0.00 0.00 66 1019.8
20260831175551 91 0 0.0 0.0 0.00 0.00 0.00 64 1019.8
20260831175051 90 0 0.0 0.0 0.00 0.00 0.00 62 1019.8
20260831174610 89 0 0.0 0.0 0.00 0.00 0.00 65 1020.0
20260831174050 90 0 0.0 0.0 0.00 0.00 0.00 62 1019.9
20260831173551 90 0 0.0 0.0 0.00 0.00 0.00 68 1019.9
20260831173103 89 0 0.0 0.0 0.00 0.00 0.00 66 1020.0
20260831172550 90 0 0.0 0.0 0.00 0.00 0.00 65 1020.0
20260831172051 90 0 0.0 0.0 0.00 0.00 0.00 68 1020.0
20260831171604 89 0 0.0 0.0 0.00 0.00 0.00 73 1020.0
20260831171051 89 0 0.0 0.0 0.00 0.00 0.00 67 1020.0
20260831170552 89 0 0.0 0.0 0.00 0.00 0.00 68 1019.9
20260831170107 89 0 0.0 0.0 0.00 0.00 0.00 69 1019.9
20260831165551 89 0 0.0 0.0 0.00 0.00 0.00 68 1020.0
20260831165050 89 0 0.0 0.0 0.00 0.00 0.00 72 1020.0
20260831164612 88 0 0.0 0.0 0.00 0.00 0.00 70 1020.1
20260831164051 88 0 0.0 0.0 0.00 0.00 0.00 71 1020.2
20260831163550 87 0 0.0 0.0 0.00 0.00 0.00 72 1020.3
20260831163107 87 0 0.0 0.0 0.00 0.00 0.00 70 1020.4
20260831162551 88 0 0.0 0.0 0.00 0.00 0.00 70 1020.4
20260831162052 87 0 0.0 0.0 0.00 0.00 0.00 73 1020.4
20260831161610 88 0 0.0 0.0 0.00 0.00 0.00 70 1020.4
20260831161050 89 0 0.0 0.0 0.00 0.00 0.00 68 1020.5
20260831160551 89 0 0.0 0.0 0.00 0.00 0.00 67 1020.4
20260831160105 89 0 0.0 0.0 0.00 0.00 0.00 68 1020.5
20260831155551 88 0 0.0 0.0 0.00 0.00 0.00 71 1020.5
20260831155051 88 0 0.0 0.0 0.00 0.00 0.00 69 1020.5
20260831154632 88 0 0.0 0.0 0.00 0.00 0.00 70 1020.6
20260831154050 87 0 0.0 0.0 0.00 0.00 0.00 70 1020.6
20260831153551 87 0 0.0 0.0 0.00 0.00 0.00 70 1020.6
20260831153111 87 0 0.0 0.0 0.00 0.00 0.00 71 1020.6
20260831152550 87 0 0.0 0.0 0.00 0.00 0.00 69 1020.5
20260831152052 87 0 0.0 0.0 0.00 0.00 0.00 71 1020.6
20260831151609 87 0 0.0 0.0 0.00 0.00 0.00 71 1020.7
20260831151054 86 0 0.0 0.0 0.00 0.00 0.00 70 1020.7
20260831150554 86 0 0.0 0.0 0.00 0.00 0.00 70 1020.7
20260831145550 86 0 0.0 0.0 0.00 0.00 0.00 72 1020.8
20260831145057 85 0 0.0 0.0 0.00 0.00 0.00 72 1020.8
20260831144608 85 0 0.0 0.0 0.00 0.00 0.00 74 1020.7
20260831144050 85 0 0.0 0.0 0.00 0.00 0.00 75 1020.7
20260831143551 85 0 0.0 0.0 0.00 0.00 0.00 76 1020.7
20260831143119 84 0 0.0 0.0 0.00 0.00 0.00 78 1020.7
20260831142551 84 0 0.0 0.0 0.00 0.00 0.00 77 1020.7
20260831142051 83 0 0.0 0.0 0.00 0.00 0.00 78 1020.8
20260831141610 83 0 0.0 0.0 0.00 0.00 0.00 79 1020.7
20260831141054 82 0 0.0 0.0 0.00 0.00 0.00 80 1020.8
20260831140551 82 0 0.0 0.0 0.00 0.00 0.00 79 1020.8
20260831140107 82 0 0.0 0.0 0.00 0.00 0.00 79 1020.8
20260831135549 82 0 0.0 0.0 0.00 0.00 0.00 81 1020.7
20260831135051 81 0 0.0 0.0 0.00 0.00 0.00 81 1020.7
20260831134608 81 0 0.0 0.0 0.00 0.00 0.00 82 1020.6
20260831134051 81 0 0.0 0.0 0.00 0.00 0.00 81 1020.7
20260831133550 81 0 0.0 0.0 0.00 0.00 0.00 83 1020.5
20260831133110 80 0 0.0 0.0 0.00 0.00 0.00 83 1020.7
20260831132550 80 0 0.0 0.0 0.00 0.00 0.00 84 1020.7
20260831132050 79 0 0.0 0.0 0.00 0.00 0.00 84 1020.7
20260831131627 79 0 0.0 0.0 0.00 0.00 0.00 85 1020.6
20260831131049 78 0 0.0 0.0 0.00 0.00 0.00 87 1020.6
20260831130549 77 0 0.0 0.0 0.00 0.00 0.00 87 1020.5
20260831130116 77 0 0.0 0.0 0.00 0.00 0.00 88 1020.5
20260831125552 77 0 0.0 0.0 0.00 0.00 0.00 88 1020.5
20260831125051 76 0 0.0 0.0 0.00 0.00 0.00 88 1020.5
20260831124610 76 0 0.0 0.0 0.00 0.00 0.00 89 1020.5
20260831124050 76 0 0.0 0.0 0.00 0.00 0.00 89 1020.5
20260831123549 76 0 0.0 0.0 0.00 0.00 0.00 89 1020.8
20260831123105 75 0 0.0 0.0 0.00 0.00 0.00 89 1020.7
20260831122549 75 0 0.0 0.0 0.00 0.00 0.00 89 1020.7
20260831122051 75 0 0.0 0.0 0.00 0.00 0.00 89 1020.7
20260831121613 75 0 0.0 0.0 0.00 0.00 0.00 89 1020.6
20260831121055 74 0 0.0 0.0 0.00 0.00 0.00 90 1020.7
20260831120551 74 0 0.0 0.0 0.00 0.00 0.00 91 1020.6
20260831120109 73 0 0.0 0.0 0.00 0.00 0.00 91 1020.6
20260831115550 73 0 0.0 0.0 0.00 0.00 0.00 92 1020.6
20260831115050 72 0 0.0 0.0 0.00 0.00 0.00 92 1020.5
20260831114607 72 0 0.0 0.0 0.00 0.00 0.00 92 1020.5
20260831114052 72 0 0.0 0.0 0.00 0.00 0.00 92 1020.5
20260831113549 72 0 0.0 0.0 0.00 0.00 0.00 92 1020.5
20260831113105 72 0 0.0 0.0 0.00 0.00 0.00 92 1020.6
20260831112551 72 0 0.0 0.0 0.00 0.00 0.00 92 1020.4
20260831112048 72 0 0.0 0.0 0.00 0.00 0.00 92 1020.4
20260831111607 72 0 0.0 0.0 0.00 0.00 0.00 92 1020.2
20260831111050 72 0 0.0 0.0 0.00 0.00 0.00 92 1020.2
20260831110548 72 0 0.0 0.0 0.00 0.00 0.00 92 1020.3
20260831110117 72 0 0.0 0.0 0.00 0.00 0.00 92 1020.2
20260831105551 72 0 0.0 0.0 0.00 0.00 0.00 92 1020.2
20260831105052 72 0 0.0 0.0 0.00 0.00 0.00 92 1020.2
20260831104603 72 0 0.0 0.0 0.00 0.00 0.00 92 1020.1
20260831104050 72 0 0.0 0.0 0.00 0.00 0.00 92 1020.2
20260831103552 72 0 0.0 0.0 0.00 0.00 0.00 92 1020.1
20260831103058 72 0 0.0 0.0 0.00 0.00 0.00 92 1020.1
20260831102553 72 0 0.0 0.0 0.00 0.00 0.00 92 1019.9
20260831102051 72 0 0.0 0.0 0.00 0.00 0.00 92 1019.9
20260831101611 72 0 0.0 0.0 0.00 0.00 0.00 92 1019.9
20260831101051 72 0 0.0 0.0 0.00 0.00 0.00 92 1019.7
20260831100551 72 0 0.0 0.0 0.00 0.00 0.00 92 1019.8
20260831100110 72 0 0.0 0.0 0.00 0.00 0.00 92 1019.9
20260831095553 72 0 0.0 0.0 0.00 0.00 0.00 92 1019.8
20260831095051 72 0 0.0 0.0 0.00 0.00 0.00 92 1019.9
20260831094621 72 0 0.0 0.0 0.00 0.00 0.00 92 1019.8
20260831094051 72 0 0.0 0.0 0.00 0.00 0.00 92 1019.9
20260831093551 72 0 0.0 0.0 0.00 0.00 0.00 92 1019.8
20260831093105 72 0 0.0 0.0 0.00 0.00 0.00 92 1019.9
20260831092551 72 0 0.0 0.0 0.00 0.00 0.00 92 1019.9
20260831092051 72 0 0.0 0.0 0.00 0.00 0.00 92 1019.9
20260831091608 72 0 0.0 0.0 0.00 0.00 0.00 92 1020.0
20260831091051 72 0 0.0 0.0 0.00 0.00 0.00 92 1020.0
20260831090553 72 0 0.0 0.0 0.00 0.00 0.00 92 1019.9
20260831090106 72 0 0.0 0.0 0.00 0.00 0.00 92 1019.9
20260831085551 72 0 0.0 0.0 0.00 0.00 0.00 92 1019.8
20260831085051 72 0 0.0 0.0 0.00 0.00 0.00 92 1019.9
20260831084558 72 0 0.0 0.0 0.00 0.00 0.00 92 1019.8
20260831084051 72 0 0.0 0.0 0.00 0.00 0.00 92 1019.8
20260831083550 72 0 0.0 0.0 0.00 0.00 0.00 92 1019.8
20260831083106 72 0 0.0 0.0 0.00 0.00 0.00 92 1020.0
20260831082551 72 0 0.0 0.0 0.00 0.00 0.00 92 1019.9
20260831082051 72 0 0.0 0.0 0.00 0.00 0.00 92 1019.8
20260831081608 72 0 0.0 0.0 0.00 0.00 0.00 92 1020.0
20260831081051 72 0 0.0 0.0 0.00 0.00 0.00 91 1019.8
20260831080554 72 0 0.0 0.0 0.00 0.00 0.00 91 1019.8
20260831080104 72 0 0.0 0.0 0.00 0.00 0.00 91 1019.8
20260831075553 72 0 0.0 0.0 0.00 0.00 0.00 91 1019.9
20260831075051 72 0 0.0 0.0 0.00 0.00 0.00 91 1019.9
20260831074603 72 0 0.0 0.0 0.00 0.00 0.00 91 1019.8
20260831074054 72 0 0.0 0.0 0.00 0.00 0.00 92 1019.9
20260831073552 72 0 0.0 0.0 0.00 0.00 0.00 92 1020.1
20260831073112 72 0 0.0 0.0 0.00 0.00 0.00 92 1020.1
20260831072550 72 0 0.0 0.0 0.00 0.00 0.00 92 1020.0
20260831072052 72 0 0.0 0.0 0.00 0.00 0.00 92 1019.9
20260831071604 72 0 0.0 0.0 0.00 0.00 0.00 92 1020.0
20260831071053 72 0 0.0 0.0 0.00 0.00 0.00 92 1019.9
20260831070551 72 0 0.0 0.0 0.00 0.00 0.00 92 1020.1
20260831070106 72 0 0.0 0.0 0.00 0.00 0.00 92 1020.1
20260831065551 72 0 0.0 0.0 0.00 0.00 0.00 92 1020.2
20260831065051 72 0 0.0 0.0 0.00 0.00 0.00 92 1020.1
20260831064609 72 0 0.0 0.0 0.00 0.00 0.00 92 1020.1
20260831064052 72 0 0.0 0.0 0.00 0.00 0.00 92 1020.2
20260831063549 72 0 0.0 0.0 0.00 0.00 0.00 92 1020.2
20260831063104 72 0 0.0 0.0 0.00 0.00 0.00 92 1020.1
20260831062552 72 0 0.0 0.0 0.00 0.00 0.00 92 1020.1
20260831062050 72 0 0.0 0.0 0.00 0.00 0.00 92 1020.1
20260831061606 72 0 0.0 0.0 0.00 0.00 0.00 92 1020.2
20260831061050 72 0 0.0 0.0 0.00 0.00 0.00 92 1020.1
20260831060551 72 0 0.0 0.0 0.00 0.00 0.00 92 1020.3
20260831060110 72 0 0.0 0.0 0.00 0.00 0.00 92 1020.3
20260831055551 72 0 0.0 0.0 0.00 0.00 0.00 92 1020.3
20260831055051 72 0 0.0 0.0 0.00 0.00 0.00 92 1020.3
20260831054605 72 0 0.0 0.0 0.00 0.00 0.00 92 1020.4
20260831054051 72 0 0.0 0.0 0.00 0.00 0.00 92 1020.2
20260831053554 72 0 0.0 0.0 0.00 0.00 0.00 92 1020.4
20260831053105 72 0 0.0 0.0 0.00 0.00 0.00 92 1020.4
20260831052551 72 0 0.0 0.0 0.00 0.00 0.00 92 1020.3
20260831052050 72 0 0.0 0.0 0.00 0.00 0.00 92 1020.3
20260831051604 72 0 0.0 0.0 0.00 0.00 0.00 92 1020.4
20260831051050 72 0 0.0 0.0 0.00 0.00 0.00 92 1020.5
20260831050552 72 0 0.0 0.0 0.00 0.00 0.00 92 1020.5
20260831050113 72 0 0.0 0.0 0.00 0.00 0.00 92 1020.6
20260831045551 72 0 0.0 0.0 0.00 0.00 0.00 92 1020.5
20260831045049 72 0 0.0 0.0 0.00 0.00 0.00 92 1020.6
20260831044636 73 0 0.0 0.0 0.00 0.00 0.00 92 1020.6
20260831044052 73 0 0.0 0.0 0.00 0.00 0.00 92 1020.5
20260831043550 73 0 0.0 0.0 0.00 0.00 0.00 92 1020.5
20260831043103 73 0 0.0 0.0 0.00 0.00 0.00 92 1020.5
20260831042551 73 0 0.0 0.0 0.00 0.00 0.00 92 1020.6
20260831042051 73 0 0.0 0.0 0.00 0.00 0.00 92 1020.6
20260831041614 73 0 0.0 0.0 0.00 0.00 0.00 92 1020.6
20260831041051 73 0 0.0 0.0 0.00 0.00 0.00 92 1020.5
20260831040549 73 0 0.0 0.0 0.00 0.00 0.00 92 1020.6
20260831040110 73 0 0.0 0.0 0.00 0.00 0.00 91 1020.6
20260831035549 73 0 0.0 0.0 0.00 0.00 0.00 91 1020.7
20260831035052 73 0 0.0 0.0 0.00 0.00 0.00 91 1020.6
20260831034607 73 0 0.0 0.0 0.00 0.00 0.00 91 1020.6
20260831034051 73 0 0.0 0.0 0.00 0.00 0.00 91 1020.6
20260831033554 73 0 0.0 0.0 0.00 0.00 0.00 91 1020.6
20260831033104 74 0 0.0 0.0 0.00 0.00 0.00 91 1020.6
20260831032548 74 0 0.0 0.0 0.00 0.00 0.00 91 1020.6
20260831032048 74 0 0.0 0.0 0.00 0.00 0.00 91 1020.7
20260831031609 74 0 0.0 0.0 0.00 0.00 0.00 91 1020.7
20260831031049 74 0 0.0 0.0 0.00 0.00 0.00 91 1020.8
20260831030551 74 0 0.0 0.0 0.00 0.00 0.00 90 1020.8
20260831030106 74 0 0.0 0.0 0.00 0.00 0.00 90 1020.8
20260831025550 74 0 0.0 0.0 0.00 0.00 0.00 90 1020.8
20260831025050 74 0 0.0 0.0 0.00 0.00 0.00 90 1020.7
20260831024604 74 0 0.0 0.0 0.00 0.00 0.00 90 1020.7
20260831024050 75 0 0.0 0.0 0.00 0.00 0.00 90 1020.6
20260831023548 75 0 0.0 0.0 0.00 0.00 0.00 90 1020.8
20260831023101 75 0 0.0 0.0 0.00 0.00 0.00 90 1020.8
20260831022549 75 0 0.0 0.0 0.00 0.00 0.00 90 1020.7
20260831022049 75 0 0.0 0.0 0.00 0.00 0.00 90 1020.9
20260831021602 76 0 0.0 0.0 0.00 0.00 0.00 89 1020.7
20260831021049 76 0 0.0 0.0 0.00 0.00 0.00 89 1020.8
20260831020549 76 0 0.0 0.0 0.00 0.00 0.00 89 1020.8
20260831020106 76 0 0.0 0.0 0.00 0.00 0.00 89 1020.8
20260831015548 76 0 0.0 0.0 0.00 0.00 0.00 89 1021.0
20260831015048 76 0 0.0 0.0 0.00 0.00 0.00 89 1020.9
20260831014604 76 0 0.0 0.0 0.00 0.00 0.00 89 1021.0
20260831014049 76 0 0.0 0.0 0.00 0.00 0.00 90 1020.9
20260831013549 76 0 0.0 0.0 0.00 0.00 0.00 90 1021.1
20260831013109 76 0 0.0 0.0 0.00 0.00 0.00 89 1021.0
20260831012553 76 0 0.0 0.0 0.00 0.00 0.00 89 1021.1
20260831012052 76 0 0.0 0.0 0.00 0.00 0.00 90 1021.0
20260831011609 76 0 0.0 0.0 0.00 0.00 0.00 90 1021.0
20260831011049 76 0 0.0 0.0 0.00 0.00 0.00 89 1020.9
20260831010553 77 0 0.0 0.0 0.00 0.00 0.00 89 1020.9
20260831010108 77 0 0.0 0.0 0.00 0.00 0.00 89 1020.9
20260831005549 77 0 0.0 0.0 0.00 0.00 0.00 89 1020.7
20260831005049 77 0 0.0 0.0 0.00 0.00 0.00 89 1020.6
20260831004612 77 0 0.0 0.0 0.00 0.00 0.00 89 1020.6
20260831004050 77 0 0.0 0.0 0.00 0.00 0.00 88 1020.4
20260831003553 77 0 0.0 0.0 0.00 0.00 0.00 88 1020.4
20260831003110 77 0 0.0 0.0 0.00 0.00 0.00 88 1020.3
20260831002548 78 0 0.0 0.0 0.00 0.00 0.00 88 1020.3
20260831002051 78 0 0.0 0.0 0.00 0.00 0.00 88 1020.1
20260831001606 78 0 0.0 0.0 0.00 0.00 0.00 87 1020.2
20260831001052 79 0 0.0 0.0 0.00 0.00 0.00 87 1020.2
20260831000551 79 0 0.0 0.0 0.00 0.00 0.00 87 1020.1
20260831000108 79 0 0.0 0.0 0.00 0.00 0.00 86 1020.0
20260830235551 80 0 0.0 0.0 0.00 0.00 0.00 85 1020.0
20260830235050 80 0 0.0 0.0 0.00 0.00 0.00 85 1020.1
20260830234605 80 0 0.0 0.0 0.00 0.00 0.00 84 1020.2
20260830234049 81 0 0.0 0.0 0.00 0.00 0.00 84 1020.1
20260830233548 81 0 0.0 0.0 0.00 0.00 0.00 83 1020.2
20260830233114 81 0 0.0 0.0 0.00 0.00 0.00 83 1020.3
20260830232552 81 0 0.0 0.0 0.00 0.00 0.00 82 1020.3
20260830232049 81 0 0.0 0.0 0.00 0.00 0.00 82 1020.3
20260830231608 82 0 0.0 0.0 0.00 0.00 0.00 82 1020.3
20260830231048 82 0 0.0 0.0 0.00 0.00 0.00 81 1020.3
20260830230551 82 0 0.0 0.0 0.00 0.00 0.00 80 1020.3
20260830230107 83 0 0.0 0.0 0.00 0.00 0.00 79 1020.2
20260830225548 83 0 0.0 0.0 0.00 0.00 0.00 78 1020.3
20260830225051 83 0 0.0 0.0 0.00 0.00 0.00 78 1020.3
20260830224604 83 0 0.0 0.0 0.00 0.00 0.00 79 1020.1
20260830224050 83 0 0.0 0.0 0.00 0.00 0.00 77 1020.2
20260830223551 83 0 0.0 0.0 0.00 0.00 0.00 77 1020.2
20260830223109 84 0 0.0 0.0 0.00 0.00 0.00 76 1020.1